Home   Weather   Lord Howe Island   Past weeks
Flag for Australia

Past Weather in Lord Howe Island, Lord Howe Island, Australia — Yesterday and Last 2 Weeks

Now
76 °F

Mild.


Feels Like: 76 °F
Forecast: 79 / 76 °F
Wind: 7 mph from North

Location: Lord Howe Island

Current Time: Mar 25, 2019 at 5:03:05 am

Latest Report: Mar 25, 2019 at 3:00 am


Visibility: N/A

Pressure: 29.98 "Hg

Humidity: 87%

Dew Point: 72 °F

Location of Lord Howe IslandLocation

Past Weather in Lord Howe Island — Graph

°F

Lord Howe Island Temperature Yesterday

Maximum temperature yesterday: 81 °F (at 11:00 am)
Minimum temperature yesterday: 68 °F (at 12:00 am)
Average temperature yesterday: 75 °F

High & Low Weather Summary for the Past Weeks

 TemperatureHumidityPressure
High81 °F (Mar 24, 11:00 am)96% (Mar 24, 5:00 am)30.06 "Hg (Mar 24, 5:00 am)
Low68 °F (Mar 23, 11:00 pm)70% (Mar 15, 3:00 pm)29.80 "Hg (Mar 12, 6:00 pm)
Average75 °F84%29.94 "Hg
* Reported Mar 10 3:00 am — Mar 25 3:00 am, Lord Howe Island. Weather by CustomWeather, © 2019

Note: Actual official high and low records may vary slightly from our data, if they occured in-between our weather recording intervals... More about our weather records

Advertising

Lord Howe Island Weather History for the Previous 24 Hours

Scroll right to see more
 ConditionsComfort  
Time TempWeatherWind HumidityBarometerVisibility
3:00 am
Mon, Mar 25
76 °FMild.7 mph87%29.98 "HgN/A
2:00 am76 °FMild.7 mph86%29.98 "HgN/A
12:00 am76 °FMild.7 mph86%29.99 "HgN/A
11:00 pm
Sun, Mar 24
76 °FMild.8 mph85%30.00 "HgN/A
9:00 pm75 °FMild.6 mph83%30.00 "HgN/A
8:00 pm76 °FMild.9 mph84%29.97 "HgN/A
6:00 pm77 °FScattered clouds.10 mph83%29.96 "HgN/A
5:00 pm78 °FWarm.9 mph81%29.95 "HgN/A
3:00 pm79 °FWarm.9 mph80%29.96 "HgN/A
2:00 pm78 °FWarm.8 mph81%29.97 "HgN/A
12:00 pm78 °FPassing clouds.6 mph79%30.01 "HgN/A
11:00 am81 °FWarm.8 mph79%30.01 "HgN/A
9:00 am79 °FScattered clouds.2 mph89%30.00 "HgN/A
8:00 am77 °FMild.6 mph92%29.99 "HgN/A
6:00 am70 °FPassing clouds.2 mph96%29.98 "Hg11 mi
5:00 am71 °FMild.2 mph96%29.97 "HgN/A
Weather by CustomWeather, © 2019

See weather overview